HK4RAU-90 Weather Reports


Display with metric or nautical units.
time (UTC)temp
F
wind
direction
speed
MPH
gust
MPH
rain 1hr
in
rain 24hr
in
rain mn
in
humidity
%
barometer
mb
20260507123026 67 193 1.0 1.0 0.00 0.00 0.00 97 1014.0
20260507122720 68 193 1.0 1.0 0.00 0.00 0.00 97 1014.0
20260507122413 67 193 1.0 1.0 0.00 0.00 0.00 97 1014.0
20260507122112 68 193 1.0 1.0 0.00 0.00 0.00 97 1014.0
20260507121210 69 193 1.0 1.0 0.00 0.00 0.00 97 1014.0
20260507120858 69 193 1.0 1.0 0.00 0.00 0.00 97 1014.0
20260507120557 70 193 1.0 1.0 0.00 0.00 0.00 97 1014.0
20260507120250 70 193 1.0 1.0 0.00 0.00 0.00 97 1014.0
20260507115948 70 193 1.0 1.0 0.00 0.00 0.00 97 1014.0
20260507115647 70 193 1.0 1.0 0.00 0.00 0.00 97 1014.0
20260507115340 71 193 1.0 1.0 0.00 0.00 0.00 97 1014.0
20260507114735 72 193 1.0 2.0 0.00 0.00 0.00 97 1014.0
20260507114427 71 193 1.0 1.0 0.00 0.00 0.00 97 1014.0
20260507113819 72 193 1.0 2.0 0.00 0.00 0.00 97 1014.0
20260507113511 66 213 1.0 1.0 0.00 0.00 0.00 99 1014.0
20260507113204 66 213 1.0 1.0 0.00 0.00 0.00 99 1014.0
20260507112853 67 213 1.0 1.0 0.00 0.00 0.00 99 1013.0
20260507112546 67 213 1.0 1.0 0.00 0.00 0.00 99 1013.0
20260507112240 67 213 1.0 1.0 0.00 0.00 0.00 99 1013.0
20260507111933 68 213 1.0 1.0 0.00 0.00 0.00 99 1013.0
20260507111626 67 213 1.0 1.0 0.00 0.00 0.00 99 1013.0
20260507111325 68 213 1.0 1.0 0.00 0.00 0.00 99 1013.0
20260507111017 68 213 1.0 1.0 0.00 0.00 0.00 99 1013.0
20260507110711 69 213 1.0 1.0 0.00 0.00 0.00 99 1013.0
20260507110356 70 213 1.0 1.0 0.00 0.00 0.00 99 1013.0
20260507110049 71 213 1.0 1.0 0.00 0.00 0.00 99 1013.0
20260507105738 71 213 1.0 1.0 0.00 0.00 0.00 99 1013.0
20260507105431 65 189 1.0 1.0 0.00 0.00 0.00 99 1013.0
20260507105124 71 213 1.0 1.0 0.00 0.00 0.00 99 1013.0
20260507104823 65 189 1.0 1.0 0.00 0.00 0.00 99 1013.0
20260507104520 65 189 1.0 1.0 0.00 0.00 0.00 99 1013.0
20260507104213 66 189 1.0 1.0 0.00 0.00 0.00 99 1013.0
20260507103907 66 189 1.0 1.0 0.00 0.00 0.00 99 1013.0
20260507103559 66 189 1.0 1.0 0.00 0.00 0.00 99 1013.0
20260507103252 66 189 1.0 1.0 0.00 0.00 0.00 99 1013.0
20260507102946 67 189 1.0 1.0 0.00 0.00 0.00 99 1013.0
20260507102639 67 189 1.0 1.0 0.00 0.00 0.00 99 1013.0
20260507102338 67 189 1.0 1.0 0.00 0.00 0.00 99 1013.0
20260507102031 68 189 1.0 1.0 0.00 0.00 0.00 99 1013.0
20260507101730 67 189 1.0 1.0 0.00 0.00 0.00 99 1013.0
20260507101418 67 189 1.0 1.0 0.00 0.00 0.00 99 1013.0
20260507101112 68 189 1.0 1.0 0.00 0.00 0.00 99 1013.0
20260507100811 69 189 1.0 1.0 0.00 0.00 0.00 99 1013.0
20260507100509 68 189 1.0 1.0 0.00 0.00 0.00 99 1013.0
20260507100208 69 189 1.0 1.0 0.00 0.00 0.00 99 1013.0
20260507095902 69 189 1.0 1.0 0.00 0.00 0.00 99 1013.0
20260507095555 70 189 1.0 1.0 0.00 0.00 0.00 99 1013.0
20260507095248 69 189 1.0 1.0 0.00 0.00 0.00 99 1013.0
20260507094943 70 189 1.0 1.0 0.00 0.00 0.00 99 1013.0
20260507094637 70 189 1.0 1.0 0.00 0.00 0.00 99 1013.0
20260507094335 65 189 1.0 1.0 0.00 0.00 0.00 99 1013.0
20260507094034 66 189 1.0 1.0 0.00 0.00 0.00 99 1013.0
20260507093412 66 189 1.0 1.0 0.00 0.00 0.00 99 1013.0
20260507093105 66 189 1.0 1.0 0.00 0.00 0.00 99 1013.0
20260507092759 67 132 0.0 0.0 0.00 0.00 0.00 99 1013.0
20260507092449 68 132 0.0 0.0 0.00 0.00 0.00 99 1013.0
20260507091837 70 132 0.0 0.0 0.00 0.00 0.00 99 1013.0
20260507091531 68 132 0.0 0.0 0.00 0.00 0.00 99 1013.0
20260507091222 69 132 0.0 0.0 0.00 0.00 0.00 99 1013.0
20260507090916 70 132 0.0 0.0 0.00 0.00 0.00 99 1013.0
20260507090609 71 132 0.0 0.0 0.00 0.00 0.00 99 1013.0
20260507090303 65 273 1.0 0.0 0.00 0.00 0.00 98 1012.0
20260507085956 65 273 1.0 0.0 0.00 0.00 0.00 98 1012.0
20260507085655 66 273 1.0 0.0 0.00 0.00 0.00 98 1012.0
20260507085343 67 273 1.0 0.0 0.00 0.00 0.00 98 1012.0
20260507085037 68 273 1.0 0.0 0.00 0.00 0.00 98 1012.0
20260507084730 66 273 1.0 0.0 0.00 0.00 0.00 98 1012.0
20260507084419 67 273 1.0 0.0 0.00 0.00 0.00 98 1012.0
20260507084117 68 273 1.0 0.0 0.00 0.00 0.00 98 1012.0
20260507083816 69 273 1.0 0.0 0.00 0.00 0.00 98 1012.0
20260507083510 69 273 1.0 0.0 0.00 0.00 0.00 98 1012.0
20260507083204 69 273 1.0 0.0 0.00 0.00 0.00 98 1012.0
20260507082856 69 273 1.0 0.0 0.00 0.00 0.00 98 1012.0
20260507082548 70 273 1.0 0.0 0.00 0.00 0.00 98 1012.0
20260507082247 70 273 1.0 0.0 0.00 0.00 0.00 98 1012.0